MUOS-4

Last updated on Sun Jan 18 2026 00:02:47 GMT+0000 (Coordinated Universal Time)

1 40887U 15044A 26017.59882968 -.00000079 00000+0 00000+0 0 9997 2 40887 4.0477 41.1619 0054951 357.1148 9.3517 1.00271739 38057
UTC large
Height (km)
Speed (km/s)
/
Latitude / Longitude
Inclination (degrees)
Orbital Period (minutes)
Azimuth
Elevation
Range (km)
Doppler Factor

Next 0 passes for location: London (51.5072 / 0.1276)

Sorry there are no passes over London.